Home > Weather > Bismarck > Past weeks

Flag for USA Past Weather in Bismarck, North Dakota, USA — Yesterday and Last 2 Weeks

Now
62 °F

Clear.


Feels Like: 62 °F
Forecast: 60 / 81 °F
Wind: 15 mph from West

Location: Bismarck Municipal Airport

Current Time: Jun 26, 2016 at 7:01:50 AM

Latest Report: Jun 26, 2016 at 5:52 AM


Visibility: 10 mi

Pressure: 29.92 "Hg (28.17 "Hg at 513m altitude)

Humidity: 62%

Dew Point: 49 °F

Location of BismarckLocation

Past Weather in Bismarck — Graph

°F

Bismarck Temperature Yesterday

Maximum temperature yesterday: 80 °F (at 1:52 PM)
Minimum temperature yesterday: 64 °F (at 5:52 AM)
Average temperature yesterday: 72 °F

High & Low Weather Summary for the Past Weeks

 TemperatureHumidityPressure
High92 °F (Jun 24, 5:52 PM)100% (Jun 13, 3:52 AM)30.29 "Hg (Jun 13, 3:52 AM)
Low48 °F (Jun 23, 5:52 AM)18% (Jun 19, 6:52 PM)29.50 "Hg (Jun 25, 12:52 AM)
Average71 °F62%29.91 "Hg
* Reported Jun 11 4:59 AM — Jun 26 4:52 AM, Bismarck, Weather by CustomWeather, © 2016

Note: Actual official high and low records may vary slightly from our data, if they occured in-between our weather recording intervals... More about our weather records

Advertising

Bismarck Weather History for the Previous 24 Hours

Scroll right to see more
 ConditionsComfort  
Time TempWeatherWind HumidityBarometerVisibility
4:52 AM
Sun, Jun 26
60 °FClear.14 mph67%29.91 "Hg10 mi
3:52 AM61 °FClear.13 mph65%29.90 "Hg10 mi
2:52 AM64 °FClear.13 mph58%29.90 "Hg10 mi
1:52 AM62 °FClear.12 mph65%29.90 "Hg10 mi
12:52 AM64 °FClear.14 mph58%29.90 "Hg10 mi
11:52 PM
Sat, Jun 25
65 °FClear.10 mph56%29.90 "Hg10 mi
10:52 PM68 °FClear.16 mph49%29.89 "Hg10 mi
9:52 PM70 °FPassing clouds.17 mph44%29.87 "Hg10 mi
8:52 PM71 °FSunny.14 mph44%29.85 "Hg10 mi
7:52 PM73 °FSunny.29 mph37%29.85 "Hg10 mi
6:52 PM78 °FScattered clouds.30 mph31%29.82 "Hg10 mi
5:52 PM80 °FScattered clouds.23 mph24%29.80 "Hg10 mi
4:52 PM80 °FPassing clouds.25 mph23%29.82 "Hg10 mi
3:52 PM80 °FSunny.21 mph24%29.83 "Hg10 mi
2:52 PM79 °FSunny.21 mph24%29.82 "Hg10 mi
1:52 PM80 °FSunny.20 mph26%29.80 "Hg10 mi
12:52 PM76 °FSunny.17 mph37%29.81 "Hg10 mi
11:52 AM74 °FSunny.16 mph36%29.82 "Hg10 mi
10:52 AM73 °FSunny.13 mph41%29.81 "Hg10 mi
9:52 AM71 °FSunny.20 mph44%29.81 "Hg10 mi
8:52 AM68 °FSunny.20 mph59%29.79 "Hg10 mi
7:52 AM66 °FSunny.13 mph63%29.76 "Hg10 mi
Weather by CustomWeather, © 2016

See weather overviewHow to use our weather pages